ALSAT 1

Satellite information

Favourite Embed

Satellite Type and Status

PAYLOADIN ORBIT

Key statistics

Satellite ALSAT 1 at a glance.

Uptime

8311

Days in orbit

Revolutions

≈ 14.8

Per day

Orbit

SSO

Sun Synchronous Orbit

Inclination

98.2

Latest

Satellite identification and parameters

Extended collection of information and parameters for ALSAT 1.

Object identification

Identified? True

Debris? False

Object name: ALSAT 1

International designator: 2002-054A

Object number (NORAD): 27559

Object ID (CCSDS): 27559

Country: ALGERIA (ALG)

Current information (Y/N): Y

RCS size: MEDIUM

Orbital parameters

Period: 97.469 minutes

Inclination: 98.2383 deg

SMA: 7015.716 km

Apoapsis: 652.268 km

Periapsis: 622.895 km

RAAN: 54.9155 deg

Eccentricy: 0.00209336

Argument of periapsis: 132.0203 deg

Mean anomaly: 228.2793 deg

Mean motion: 14.77388538 rev/day

Mean motion (dot): 0.00001493 rev/day2

B* drag term: 0.00021694662 1/REarth

Two-line elements (TLE)

Creation date: Aug. 30, 2025, 3:38 a.m.

Reference frame: TEME

Reference center: EARTH

Epoch: Aug. 29, 2025, 10:22 p.m. UTC

TLE line 0: 0 ALSAT 1

TLE line 1: 1 27559U 02054A 25241.93226939 .00001493 00000-0 21695-3 0 9999

TLE line 2: 2 27559 98.2383 54.9155 0020934 132.0203 228.2793 14.77388538220237

Live tracking on map

Real-time ground track for satellite ALSAT 1.

In-orbit conjunctions

There are no conjunctions computed for ALSAT 1, at the moment. Check back to stay up to date, as we update our databases every day.

Go to all conjunctions

Associated space launch

ALSAT 1 was an Algerian imaging minisatellite. The 90-kg satellite was the first part of an international Disaster Monitoring System (DMS) for alerting natural/man-made disasters.

ALSAT 1 was lifted into orbit during the mission ‘Kosmos-3M | AlSat-1’, on board a Kosmos-3M space rocket.

The launch took place on Nov. 28, 2002, 6:07 a.m. from 132/1 (132L).

For more information about the launch, click the button.

Launch to space Kosmos-3M | AlSat-1
Kosmos-3M | AlSat-1

Agency: N/A

Status: Launch Successful

Launch date: Nov. 28, 2002, 6:07 a.m. UTC

Rocket: Kosmos-3M

Launch pad: 132/1 (132L)

Location: Plesetsk Cosmodrome, Russian Federation

...

Latest news about this satellite

There are no fresh news available about this satellite. Check back as we update our databases every day.


Newsletter sign-up

Weekly statistics, charts and insights to help you stay on top of the space industry.